�������l�o���
Date,Time,MP-1(��Sv/h),MP-2(��Sv/h),MP-3(��Sv/h),MP-4(��Sv/h),MP-5(��Sv/h),MP-6(��Sv/h),MP-7(��Sv/h),MP-8(��Sv/h),����,����(m/s),���J
2021/01/04,00:00,0.662,0.947,0.605,1.193,0.841,0.376,0.669,0.632,�쐼,4.0,��
2021/01/04,00:10,0.664,0.946,0.604,1.195,0.841,0.376,0.669,0.629,��쐼,5.0,��
2021/01/04,00:20,0.661,0.946,0.605,1.194,0.840,0.376,0.668,0.630,�쐼,4.2,��
2021/01/04,00:30,0.662,0.946,0.605,1.194,0.842,0.376,0.669,0.632,�쐼,3.0,��
2021/01/04,00:40,0.663,0.946,0.604,1.194,0.839,0.375,0.670,0.630,��쐼,3.5,��
2021/01/04,00:50,0.662,0.947,0.605,1.193,0.839,0.375,0.669,0.632,��쐼,4.1,��
2021/01/04,01:00,0.662,0.945,0.604,1.194,0.840,0.377,0.668,0.632,��쐼,4.0,��
2021/01/04,01:10,0.661,0.945,0.605,1.194,0.839,0.375,0.668,0.630,��쐼,3.5,��
2021/01/04,01:20,0.664,0.945,0.604,1.194,0.840,0.376,0.668,0.631,��쐼,3.0,��
2021/01/04,01:30,0.663,0.946,0.604,1.192,0.841,0.376,0.668,0.630,���쐼,1.9,��
2021/01/04,01:40,0.664,0.948,0.604,1.193,0.840,0.376,0.668,0.630,��,1.5,��
2021/01/04,01:50,0.663,0.949,0.604,1.194,0.839,0.376,0.669,0.631,���쐼,1.1,��
2021/01/04,02:00,0.661,0.948,0.603,1.194,0.840,0.376,0.668,0.632,��쐼,2.3,��
2021/01/04,02:10,0.664,0.946,0.605,1.194,0.840,0.377,0.668,0.631,�쐼,1.9,��
2021/01/04,02:20,0.664,0.946,0.605,1.194,0.839,0.375,0.669,0.631,��쐼,2.6,��
2021/01/04,02:30,0.662,0.947,0.603,1.193,0.841,0.375,0.669,0.631,��쐼,3.2,��
2021/01/04,02:40,0.663,0.947,0.604,1.194,0.839,0.375,0.669,0.631,��쐼,3.6,��
2021/01/04,02:50,0.662,0.947,0.604,1.193,0.842,0.375,0.669,0.630,��쐼,3.1,��
2021/01/04,03:00,0.664,0.946,0.605,1.194,0.840,0.376,0.670,0.630,��쓌,2.0,��
2021/01/04,03:10,0.663,0.947,0.605,1.193,0.840,0.375,0.668,0.631,��쓌,1.7,��
2021/01/04,03:20,0.661,0.946,0.604,1.195,0.840,0.376,0.668,0.631,��쓌,2.0,��
2021/01/04,03:30,0.662,0.945,0.603,1.194,0.840,0.376,0.669,0.632,��,2.0,��
2021/01/04,03:40,0.662,0.947,0.604,1.193,0.839,0.376,0.668,0.630,��,2.6,��
2021/01/04,03:50,0.663,0.946,0.604,1.193,0.839,0.376,0.669,0.631,��쐼,1.7,��
2021/01/04,04:00,0.664,0.946,0.605,1.193,0.839,0.375,0.669,0.632,��,2.3,��
2021/01/04,04:10,0.662,0.945,0.604,1.194,0.839,0.375,0.668,0.631,�쐼,1.5,��
2021/01/04,04:20,0.662,0.947,0.605,1.194,0.840,0.376,0.668,0.631,��,1.7,��
2021/01/04,04:30,0.662,0.944,0.603,1.192,0.838,0.375,0.669,0.631,���쐼,2.2,��
2021/01/04,04:40,0.662,0.946,0.605,1.194,0.839,0.375,0.668,0.630,��,4.0,��
2021/01/04,04:50,0.663,0.947,0.605,1.193,0.838,0.375,0.669,0.630,��,6.2,��
2021/01/04,05:00,0.663,0.946,0.603,1.196,0.840,0.375,0.669,0.632,���쐼,7.1,��
2021/01/04,05:10,0.662,0.946,0.604,1.191,0.839,0.375,0.669,0.631,���쐼,7.9,��
2021/01/04,05:20,0.662,0.945,0.604,1.194,0.839,0.374,0.669,0.631,��,8.5,��
2021/01/04,05:30,0.663,0.946,0.605,1.193,0.840,0.375,0.670,0.631,��,7.7,��
2021/01/04,05:40,0.663,0.945,0.604,1.192,0.837,0.375,0.668,0.631,��,6.0,��
2021/01/04,05:50,0.662,0.947,0.604,1.194,0.839,0.376,0.668,0.632,���k��,4.6,��
2021/01/04,06:00,0.662,0.947,0.605,1.195,0.840,0.375,0.669,0.631,��,5.1,��
2021/01/04,06:10,0.663,0.945,0.603,1.193,0.838,0.377,0.668,0.631,��,3.9,��
2021/01/04,06:20,0.661,0.946,0.605,1.192,0.839,0.378,0.668,0.631,��,3.5,��
2021/01/04,06:30,0.662,0.946,0.603,1.193,0.838,0.375,0.669,0.630,�k��,4.0,��
2021/01/04,06:40,0.662,0.946,0.604,1.196,0.840,0.375,0.668,0.631,�k��,6.4,��
2021/01/04,06:50,0.664,0.944,0.604,1.192,0.839,0.375,0.670,0.632,�k��,8.2,��
2021/01/04,07:00,0.660,0.946,0.605,1.193,0.839,0.376,0.667,0.630,�k��,7.9,��
2021/01/04,07:10,0.661,0.945,0.606,1.196,0.838,0.375,0.669,0.629,���k��,8.3,��
2021/01/04,07:20,0.661,0.946,0.604,1.194,0.839,0.376,0.668,0.630,���k��,8.0,��
2021/01/04,07:30,0.663,0.946,0.604,1.194,0.840,0.376,0.667,0.633,���k��,7.5,��
2021/01/04,07:40,0.661,0.945,0.604,1.194,0.838,0.376,0.668,0.632,���k��,7.1,��
2021/01/04,07:50,0.664,0.945,0.604,1.192,0.839,0.377,0.669,0.631,���k��,6.8,��
2021/01/04,08:00,0.661,0.947,0.605,1.195,0.840,0.375,0.670,0.630,���k��,5.3,��
2021/01/04,08:10,0.662,0.947,0.606,1.193,0.838,0.375,0.669,0.631,���k��,3.8,��
2021/01/04,08:20,0.662,0.946,0.606,1.197,0.837,0.377,0.670,0.630,���k��,3.5,��
2021/01/04,08:30,0.663,0.946,0.603,1.194,0.836,0.375,0.670,0.633,���k��,3.3,��
2021/01/04,08:40,0.665,0.947,0.603,1.194,0.841,0.376,0.670,0.631,�k��,2.8,��
2021/01/04,08:50,0.663,0.948,0.605,1.192,0.838,0.375,0.670,0.631,�k��,3.1,��
2021/01/04,09:00,0.665,0.948,0.604,1.194,0.838,0.376,0.670,0.631,�k�k��,3.4,��
2021/01/04,09:10,0.662,0.949,0.606,1.194,0.839,0.376,0.671,0.632,�k,3.7,��
2021/01/04,09:20,0.664,0.946,0.606,1.195,0.839,0.376,0.671,0.632,�k,4.1,��
2021/01/04,09:30,0.663,0.948,0.606,1.194,0.838,0.375,0.670,0.632,�k��,4.3,��
2021/01/04,09:40,0.663,0.946,0.606,1.195,0.838,0.376,0.672,0.633,��,7.8,��
2021/01/04,09:50,0.664,0.947,0.606,1.193,0.840,0.376,0.670,0.631,��,7.9,��
2021/01/04,10:00,0.666,0.947,0.606,1.196,0.840,0.376,0.668,0.632,��,6.2,��
2021/01/04,10:10,0.663,0.947,0.605,1.195,0.839,0.377,0.669,0.631,��,6.1,��
2021/01/04,10:20,0.666,0.948,0.603,1.195,0.840,0.377,0.669,0.633,��,6.1,��
2021/01/04,10:30,0.664,0.948,0.605,1.194,0.839,0.376,0.669,0.632,���k��,5.3,��
2021/01/04,10:40,0.665,0.946,0.604,1.195,0.840,0.378,0.669,0.632,��,5.5,��
2021/01/04,10:50,0.665,0.946,0.605,1.197,0.841,0.377,0.669,0.631,���k��,6.6,��
2021/01/04,11:00,0.667,0.946,0.606,1.194,0.842,0.377,0.669,0.632,��,7.6,��
2021/01/04,11:10,0.665,0.945,0.605,1.196,0.844,0.377,0.670,0.632,��,8.7,��
2021/01/04,11:20,0.663,0.946,0.605,1.198,0.843,0.376,0.670,0.632,���k��,7.5,��
2021/01/04,11:30,0.664,0.946,0.606,1.198,0.841,0.377,0.670,0.632,���k��,7.6,��
2021/01/04,11:40,0.665,0.948,0.606,1.198,0.843,0.376,0.670,0.633,���k��,7.5,��
2021/01/04,11:50,0.665,0.948,0.606,1.198,0.845,0.378,0.671,0.632,��,6.9,��
2021/01/04,12:00,0.667,0.947,0.606,1.198,0.843,0.377,0.670,0.632,��,7.1,��
2021/01/04,12:10,0.665,0.948,0.607,1.197,0.843,0.376,0.669,0.633,��,7.1,��
2021/01/04,12:20,0.667,0.951,0.608,1.199,0.844,0.376,0.670,0.632,��,8.2,��
2021/01/04,12:30,0.666,0.948,0.607,1.200,0.844,0.377,0.669,0.632,��,7.6,��
2021/01/04,12:40,0.666,0.947,0.608,1.199,0.842,0.378,0.673,0.635,��,6.6,��
2021/01/04,12:50,0.669,0.949,0.606,1.196,0.846,0.379,0.672,0.632,��,4.8,��
2021/01/04,13:00,0.666,0.952,0.607,1.198,0.845,0.377,0.671,0.635,���k��,5.5,��
2021/01/04,13:10,0.665,0.949,0.605,1.196,0.845,0.378,0.672,0.632,���k��,6.0,��
2021/01/04,13:20,0.665,0.950,0.607,1.199,0.844,0.379,0.673,0.633,��,6.6,��
2021/01/04,13:30,0.663,0.952,0.609,1.198,0.845,0.378,0.671,0.633,��,7.9,��
2021/01/04,13:40,0.664,0.947,0.606,1.199,0.846,0.378,0.673,0.629,��,8.7,��
2021/01/04,13:50,0.667,0.950,0.608,1.198,0.843,0.378,0.672,0.629,��,7.2,��
2021/01/04,14:00,0.665,0.949,0.608,1.200,0.845,0.377,0.674,0.629,��,5.5,��
2021/01/04,14:10,0.667,0.944,0.607,1.199,0.844,0.377,0.672,0.630,���k��,7.2,��
2021/01/04,14:20,0.666,0.945,0.606,1.199,0.845,0.379,0.672,0.629,��,6.4,��
2021/01/04,14:30,0.666,0.949,0.608,1.197,0.844,0.378,0.673,0.631,��,5.3,��
2021/01/04,14:40,0.667,0.948,0.605,1.198,0.844,0.377,0.673,0.632,���k��,6.4,��
2021/01/04,14:50,0.667,0.950,0.608,1.201,0.846,0.377,0.673,0.633,���k��,7.3,��
2021/01/04,15:00,0.666,0.952,0.607,1.199,0.845,0.376,0.672,0.632,��,6.3,��
2021/01/04,15:10,0.666,0.952,0.608,1.198,0.845,0.377,0.672,0.630,��,5.0,��
2021/01/04,15:20,0.667,0.951,0.608,1.201,0.846,0.377,0.673,0.631,���k��,5.7,��
2021/01/04,15:30,0.665,0.953,0.608,1.199,0.847,0.377,0.673,0.632,���k��,8.3,��
2021/01/04,15:40,0.666,0.952,0.608,1.197,0.847,0.377,0.672,0.633,�k��,6.2,��
2021/01/04,15:50,0.665,0.950,0.608,1.198,0.845,0.377,0.673,0.633,�k��,3.9,��
2021/01/04,16:00,0.662,0.953,0.607,1.199,0.844,0.379,0.672,0.632,�k��,4.2,��
2021/01/04,16:10,0.666,0.950,0.608,1.201,0.846,0.377,0.673,0.633,�k��,3.6,��
2021/01/04,16:20,0.666,0.953,0.606,1.198,0.844,0.377,0.673,0.632,���k��,5.2,��
2021/01/04,16:30,0.665,0.953,0.607,1.201,0.843,0.378,0.671,0.632,��,5.8,��
2021/01/04,16:40,0.664,0.952,0.606,1.198,0.845,0.377,0.671,0.631,��,3.7,��
2021/01/04,16:50,0.663,0.953,0.608,1.201,0.843,0.377,0.670,0.632,���k��,2.0,��
2021/01/04,17:00,0.663,0.952,0.607,1.199,0.844,0.376,0.670,0.631,�k�k��,2.3,��
2021/01/04,17:10,0.665,0.951,0.607,1.197,0.847,0.376,0.671,0.633,�k�k��,3.2,��
2021/01/04,17:20,0.664,0.951,0.607,1.199,0.843,0.376,0.671,0.631,�k,4.7,��
2021/01/04,17:30,0.662,0.951,0.605,1.199,0.845,0.377,0.670,0.632,�k,5.3,��
2021/01/04,17:40,0.664,0.950,0.606,1.197,0.845,0.376,0.670,0.631,�k,4.8,��
2021/01/04,17:50,0.661,0.950,0.606,1.197,0.845,0.376,0.671,0.632,�k,3.5,��
2021/01/04,18:00,0.663,0.950,0.606,1.198,0.846,0.376,0.669,0.632,�k,2.5,��
2021/01/04,18:10,0.664,0.952,0.605,1.198,0.846,0.375,0.670,0.632,�k,1.5,��
2021/01/04,18:20,0.663,0.952,0.606,1.197,0.843,0.376,0.670,0.630,�k�k��,2.5,��
2021/01/04,18:30,0.664,0.951,0.607,1.198,0.845,0.375,0.670,0.631,�k��,1.9,��
2021/01/04,18:40,0.664,0.951,0.605,1.197,0.844,0.375,0.670,0.632,���쓌,1.2,��
2021/01/04,18:50,0.663,0.951,0.606,1.198,0.844,0.377,0.669,0.631,��쓌,1.1,��
2021/01/04,19:00,0.664,0.951,0.606,1.198,0.844,0.376,0.669,0.630,�쓌,0.9,��
2021/01/04,19:10,0.663,0.949,0.606,1.198,0.844,0.378,0.669,0.630,�k��,0.9,��
2021/01/04,19:20,0.663,0.951,0.606,1.196,0.843,0.377,0.669,0.632,���쓌,0.8,��
2021/01/04,19:30,0.664,0.951,0.606,1.196,0.844,0.376,0.668,0.632,�k�k��,0.9,��
2021/01/04,19:40,0.664,0.949,0.607,1.197,0.845,0.377,0.671,0.632,���k��,1.5,��
2021/01/04,19:50,0.662,0.949,0.604,1.195,0.843,0.378,0.670,0.632,�k�k��,1.7,��
2021/01/04,20:00,0.666,0.951,0.604,1.197,0.844,0.376,0.669,0.630,�k��,1.4,��
2021/01/04,20:10,0.664,0.949,0.605,1.197,0.844,0.376,0.669,0.632,�k��,2.6,��
2021/01/04,20:20,0.664,0.949,0.605,1.199,0.845,0.376,0.669,0.630,�k��,1.8,��
2021/01/04,20:30,0.663,0.948,0.605,1.197,0.844,0.375,0.669,0.632,��,0.9,��
2021/01/04,20:40,0.666,0.950,0.606,1.199,0.845,0.376,0.668,0.633,���k��,2.5,��
2021/01/04,20:50,0.664,0.951,0.607,1.196,0.845,0.377,0.666,0.630,��,2.0,��
2021/01/04,21:00,0.664,0.952,0.606,1.198,0.843,0.376,0.668,0.632,��,2.3,��
2021/01/04,21:10,0.664,0.949,0.607,1.198,0.842,0.376,0.669,0.632,���쐼,2.0,��
2021/01/04,21:20,0.665,0.948,0.605,1.196,0.842,0.376,0.670,0.632,���쐼,2.3,��
2021/01/04,21:30,0.664,0.950,0.606,1.200,0.842,0.376,0.670,0.631,��,1.7,��
2021/01/04,21:40,0.662,0.950,0.604,1.196,0.844,0.376,0.668,0.631,��,1.1,��
2021/01/04,21:50,0.662,0.949,0.606,1.200,0.843,0.378,0.670,0.632,-,CALM,��
2021/01/04,22:00,0.665,0.949,0.606,1.197,0.844,0.377,0.669,0.632,-,CALM,��
2021/01/04,22:10,0.664,0.950,0.605,1.193,0.844,0.375,0.670,0.631,���k��,1.4,��
2021/01/04,22:20,0.663,0.950,0.605,1.196,0.844,0.376,0.668,0.631,���쓌,0.9,��
2021/01/04,22:30,0.663,0.949,0.606,1.198,0.845,0.375,0.670,0.632,�쐼,1.1,��
2021/01/04,22:40,0.664,0.950,0.605,1.199,0.842,0.377,0.670,0.632,�쐼,0.6,��
2021/01/04,22:50,0.665,0.949,0.606,1.195,0.845,0.376,0.668,0.632,-,CALM,��
2021/01/04,23:00,0.666,0.947,0.606,1.196,0.843,0.377,0.669,0.631,�k��,0.9,��
2021/01/04,23:10,0.662,0.950,0.605,1.197,0.842,0.376,0.670,0.633,�k��,0.6,��
2021/01/04,23:20,0.664,0.951,0.605,1.197,0.843,0.376,0.670,0.631,�k,1.1,��
2021/01/04,23:30,0.665,0.950,0.606,1.199,0.843,0.376,0.670,0.631,�k�k��,2.2,��
2021/01/04,23:40,0.664,0.951,0.605,1.197,0.845,0.376,0.671,0.632,�k�k��,2.3,��
2021/01/04,23:50,0.664,0.950,0.607,1.200,0.846,0.378,0.670,0.631,�k�k��,1.4,��
